Oxford, NC

2:00 AM EST on November 13, 2019 (GMT -0500)
Henderson-Oxford

Weather History for KHNZ - September, 2019

Change the Weather History Date:

Sunday, September 1, 2019

  Actual Average (KTDF) Record (KTDF)
Temperature  
Mean Temperature 72 °F -  
Max Temperature 85 °F 85 °F 95 °F (1993)
Min Temperature 59 °F 60 °F 48 °F (1967)
Cooling Degree Days 7    
Growing Degree Days 22 (Base 50)    
Moisture  
Dew Point 62 °F    
Average Humidity 71    
Maximum Humidity 99    
Minimum Humidity 41    
Precipitation  
Precipitation 0.00 in - - ()
Sea Level Pressure  
Sea Level Pressure 30.20 in    
Wind  
Wind Speed 2 mph ()    
Max Wind Speed 14 mph    
Max Gust Speed 18 mph    
Visibility 9.4 miles    
Events      
Averages and records for this station are not official NWS values.
T = Trace of Precipitation, MM = Missing Value Source: Averaged Metar Reports

Daily Weather History Graph

Daily Weather History Graph

Search for Another Location

Airport or City:

Astronomy

Sep. 01, 2019 Rise Set
Actual Time 6:45 AM EDT 7:42 PM EDT
Civil Twilight 6:19 AM EDT 8:08 PM EDT
Nautical Twilight 5:47 AM EDT 8:39 PM EDT
Astronomical Twilight 5:15 AM EDT 9:11 PM EDT
Moon 9:09 AM EDT (9/1) 9:33 PM EDT (9/1)
Length of Visible Light 13h 49m
Length of Day
12h 57m
Waxing Crescent, 8% of the Moon is Illuminated
Sep 1
Waxing Crescent
Sep 5
First Quarter
Sep 14
Full
Sep 21
Last Quarter
Sep 28
New

Hourly Weather History & Observations

Time (EDT) Temp. Heat Index Dew Point Humidity Pressure Visibility Wind Dir Wind Speed Gust Speed Precip Events Conditions
12:15 AM 70.5 °F - 62.6 °F 76% 30.22 in 10.0 mi Calm Calm - N/A   Clear
12:35 AM 69.6 °F - 62.1 °F 77% 30.22 in 10.0 mi Calm Calm - N/A   Clear
12:55 AM 68.9 °F - 61.9 °F 78% 30.22 in 10.0 mi Calm Calm - N/A   Clear
1:15 AM 67.1 °F - 62.2 °F 84% 30.22 in 10.0 mi Calm Calm - N/A   Clear
1:35 AM 66.2 °F - 62.1 °F 86% 30.22 in 10.0 mi Calm Calm - N/A   Clear
1:55 AM 65.3 °F - 62.1 °F 89% 30.22 in 10.0 mi Calm Calm - N/A   Clear
2:15 AM 65.3 °F - 62.1 °F 89% 30.21 in 10.0 mi Calm Calm - N/A   Clear
2:35 AM 64.0 °F - 62.1 °F 93% 30.21 in 10.0 mi Calm Calm - N/A   Clear
2:55 AM 62.8 °F - 61.2 °F 94% 30.21 in 10.0 mi Calm Calm - N/A   Clear
3:15 AM 62.8 °F - 61.5 °F 96% 30.21 in 10.0 mi Calm Calm - N/A   Clear
3:35 AM 62.1 °F - 60.8 °F 96% 30.21 in 10.0 mi Calm Calm - N/A   Clear
3:55 AM 61.7 °F - 60.8 °F 97% 30.21 in 10.0 mi Calm Calm - N/A   Clear
4:15 AM 62.2 °F - 61.5 °F 97% 30.20 in 4.0 mi Calm Calm - N/A   Clear
4:35 AM 61.7 °F - 61.0 °F 97% 30.20 in 7.0 mi Calm Calm - N/A   Clear
4:55 AM 61.7 °F - 61.0 °F 97% 30.20 in 5.0 mi Calm Calm - N/A   Clear
5:15 AM 62.6 °F - 61.9 °F 97% 30.20 in 7.0 mi Calm Calm - N/A   Clear
5:35 AM 61.9 °F - 61.3 °F 98% 30.20 in 7.0 mi Calm Calm - N/A   Clear
5:55 AM 60.8 °F - 60.3 °F 98% 30.21 in 7.0 mi Calm Calm - N/A   Clear
6:15 AM 59.7 °F - 59.2 °F 98% 30.22 in 5.0 mi Calm Calm - N/A   Clear
6:55 AM 59.9 °F - 59.4 °F 98% 30.22 in 4.0 mi Calm Calm - N/A   Clear
7:15 AM 60.3 °F - 59.9 °F 99% 30.22 in 4.0 mi Calm Calm - N/A   Clear
7:35 AM 61.9 °F - 61.3 °F 98% 30.23 in 10.0 mi Calm Calm - N/A   Clear
7:55 AM 63.5 °F - 62.8 °F 97% 30.23 in 10.0 mi Calm Calm - N/A   Clear
8:15 AM 64.9 °F - 63.5 °F 95% 30.23 in 10.0 mi ENE 3.5 mph - N/A   Clear
8:35 AM 67.6 °F - 63.9 °F 88% 30.24 in 10.0 mi ENE 3.5 mph - N/A   Clear
8:55 AM 69.3 °F - 64.4 °F 84% 30.23 in 10.0 mi NE 4.6 mph - N/A   Clear
9:15 AM 71.6 °F - 64.6 °F 78% 30.24 in 10.0 mi Calm Calm - N/A   Clear
9:35 AM 73.4 °F - 64.8 °F 74% 30.24 in 10.0 mi East 8.1 mph - N/A   Clear
9:55 AM 75.4 °F - 64.9 °F 70% 30.24 in 10.0 mi East 10.4 mph - N/A   Scattered Clouds
10:15 AM 74.3 °F - 64.4 °F 71% 30.24 in 10.0 mi ENE 10.4 mph - N/A   Mostly Cloudy
10:35 AM 76.5 °F - 64.6 °F 67% 30.24 in 10.0 mi East 10.4 mph 17.3 mph N/A   Mostly Cloudy
10:55 AM 76.1 °F - 64.0 °F 66% 30.25 in 10.0 mi East 10.4 mph - N/A   Scattered Clouds
11:15 AM 78.1 °F - 64.6 °F 63% 30.24 in 10.0 mi NE 8.1 mph - N/A   Mostly Cloudy
11:35 AM 80.4 °F 82.0 °F 63.7 °F 57% 30.24 in 10.0 mi ESE 6.9 mph - N/A   Scattered Clouds
11:55 AM 78.1 °F - 62.2 °F 58% 30.24 in 10.0 mi ENE 9.2 mph - N/A   Mostly Cloudy
12:15 PM 78.8 °F - 62.2 °F 57% 30.24 in 10.0 mi ENE 11.5 mph - N/A   Mostly Cloudy
12:35 PM 79.0 °F - 61.3 °F 55% 30.23 in 10.0 mi East 5.8 mph - N/A   Scattered Clouds
12:55 PM 80.1 °F 81.1 °F 61.5 °F 53% 30.23 in 10.0 mi East 8.1 mph - N/A   Scattered Clouds
1:15 PM 81.3 °F 82.1 °F 61.2 °F 50% 30.22 in 10.0 mi ENE 6.9 mph - N/A   Scattered Clouds
1:35 PM 81.0 °F 81.7 °F 61.0 °F 50% 30.22 in 10.0 mi ENE 8.1 mph - N/A   Scattered Clouds
1:55 PM 84.0 °F 84.2 °F 60.8 °F 45% 30.21 in 10.0 mi NE 8.1 mph - N/A   Scattered Clouds
2:15 PM 82.6 °F 82.6 °F 59.5 °F 45% 30.20 in 10.0 mi ENE 10.4 mph - N/A   Scattered Clouds
2:35 PM 83.1 °F 83.2 °F 59.7 °F 45% 30.19 in 10.0 mi ESE 5.8 mph - N/A   Scattered Clouds
2:55 PM 84.4 °F 84.6 °F 60.6 °F 45% 30.18 in 10.0 mi East 9.2 mph 17.3 mph N/A   Scattered Clouds
3:15 PM 85.6 °F 85.4 °F 60.1 °F 42% 30.17 in 10.0 mi ENE 13.8 mph - N/A   Scattered Clouds
3:35 PM 83.8 °F 83.8 °F 59.7 °F 44% 30.16 in 10.0 mi ESE 5.8 mph - N/A   Scattered Clouds
3:55 PM 82.9 °F 82.8 °F 58.8 °F 44% 30.16 in 10.0 mi Calm Calm - N/A   Scattered Clouds
4:15 PM 83.1 °F 83.2 °F 59.9 °F 45% 30.16 in 10.0 mi ENE 5.8 mph - N/A   Scattered Clouds
4:35 PM 84.7 °F 84.2 °F 58.8 °F 41% 30.16 in 10.0 mi East 13.8 mph 18.4 mph N/A   Scattered Clouds
4:55 PM 84.6 °F 84.2 °F 59.4 °F 42% 30.15 in 10.0 mi East 9.2 mph - N/A   Scattered Clouds
5:15 PM 83.1 °F 83.2 °F 59.7 °F 45% 30.15 in 10.0 mi East 10.4 mph - N/A   Scattered Clouds
5:35 PM 81.9 °F 82.2 °F 60.1 °F 47% 30.15 in 10.0 mi ESE 5.8 mph - N/A   Scattered Clouds
5:55 PM 83.5 °F 83.2 °F 58.6 °F 43% 30.15 in 10.0 mi ESE 5.8 mph - N/A   Scattered Clouds
6:15 PM 83.3 °F 83.9 °F 61.7 °F 48% 30.15 in 10.0 mi East 4.6 mph - N/A   Scattered Clouds
6:35 PM 81.7 °F 82.7 °F 62.6 °F 52% 30.15 in 10.0 mi East 6.9 mph - N/A   Mostly Cloudy
6:55 PM 80.6 °F 81.6 °F 61.3 °F 52% 30.15 in 10.0 mi SE 8.1 mph - N/A   Scattered Clouds
7:15 PM 79.0 °F - 59.7 °F 52% 30.15 in 10.0 mi ESE 8.1 mph - N/A   Scattered Clouds
7:35 PM 77.2 °F - 60.3 °F 56% 30.15 in 10.0 mi Calm Calm - N/A   Scattered Clouds
7:55 PM 76.3 °F - 61.3 °F 60% 30.15 in 10.0 mi Calm Calm - N/A   Scattered Clouds
8:15 PM 76.1 °F - 62.2 °F 62% 30.15 in 10.0 mi Calm Calm - N/A   Scattered Clouds
8:35 PM 75.6 °F - 63.0 °F 65% 30.15 in 10.0 mi Calm Calm - N/A   Mostly Cloudy
8:55 PM 73.9 °F - 63.5 °F 70% 30.15 in 10.0 mi Calm Calm - N/A   Scattered Clouds
9:15 PM 73.0 °F - 64.0 °F 73% 30.15 in 10.0 mi Calm Calm - N/A   Clear
9:35 PM 72.3 °F - 64.0 °F 75% 30.16 in 10.0 mi Calm Calm - N/A   Scattered Clouds
9:55 PM 73.6 °F - 64.6 °F 73% 30.16 in 10.0 mi Calm Calm - N/A   Scattered Clouds
10:15 PM 72.9 °F - 64.9 °F 76% 30.16 in 10.0 mi Calm Calm - N/A   Scattered Clouds
10:35 PM 72.9 °F - 65.3 °F 77% 30.17 in 10.0 mi Calm Calm - N/A   Mostly Cloudy
10:55 PM 72.7 °F - 65.3 °F 78% 30.17 in 10.0 mi East 3.5 mph - N/A   Mostly Cloudy
11:15 PM 71.8 °F - 65.3 °F 80% 30.17 in 10.0 mi Calm Calm - N/A   Mostly Cloudy
11:35 PM 71.8 °F - 65.3 °F 80% 30.17 in 10.0 mi Calm Calm - N/A   Mostly Cloudy
11:55 PM 72.1 °F - 65.3 °F 79% 30.16 in 10.0 mi ESE 3.5 mph - N/A   Scattered Clouds